SL-6 R/B(2), 14191

Orbit data source: Space-Track

SL-6 R/B(2), 14191 is space debris in HEO originally from a launch on Fri, 08 Jul 1983 UTC launched from the Plesetsk Missile And Space Complex (PKMTR). Debris objects in space refer to the collection of defunct objects orbiting the Earth. Examples of debris include non-operational satellites, rocket bodies, and fragments generated from explosions, collisions, or faulty payload assembly.

Loading next visibility...
Identifier
14191, 1983-070D
Orbit
HEO
Country
Flag of CISCIS
Related business
Manufacturer
NPO Energiya
Mission
Spacecraft
Bus & Motor
BLOK-L, Unknown motor
Mass
900 kg wet, 900 kg dry
Launch date (UTC)
1983-07-08 (43 years ago)
Launch vehicle
Unknown
Launch site
Plesetsk Missile And Space Complex (PKMTR)
Object type
Payload
Rocket body
Debris
Shape & HBR
Unknown
Radar Cross Section
Large (>1 m²)

Expand to show TLE details & history
Last TLE update: 6 days ago

TLE from 6 days ago
0 SL-6 R/B(2)
1 14191U 83070D   26167.69467226 -.00000465  00000-0  00000-0 0  9994
2 14191  70.6786 254.7388 5541241 247.6444  46.4130  2.03392759239486
Epoch: 2026-06-16T16:40Z
TLE epoch observation values (Epoch: 2026-06-16T16:40:19.683Z)
Latitude
-0.00007°
Longitude
99.69418°
Altitude
16,750.702 km
Speed
4.396 km/s
True Right ascension
16h 58m 57s
True Declination
0° 00' 00"
Sunlit
Object was in daylight at epoch
Visualization orbit readout
Latitude
Unknown
Longitude
Unknown
Altitude
Unknown
Speed
Unknown
Apparent Right ascension
Unknown
Apparent Declination
Unknown
Sunlit
N/A
Visualization observer readout
Local Sidereal Time
23:08:29
Azimuth
Unknown
Elevation
Unknown
Doppler factor
Unknown
Orbital elements
Apogee altitude
34,514.777 km
Perigee altitude
5,353.98 km
Semi-major axis
26,312.515 km
Eccentricity
0.55412
Inclination
70.6786°
RAAN
254.7388°
Arg. of periapsis
247.6444°
True anomaly
112.4658°
Mean anomaly
46.413°
Eccentric anomaly
77.39699°
Mean motion
0.50851 °/min
Orbital period
707.95 mins
BSTAR
0
Loading maneuver chart data...
Computing Atmospheric mass density...
Loading historical data...
Loading historical data...
Loading historical data...
Loading historical data...
Loading historical data...
Loading historical data...
Loading historical data...

Documentation

Showing up to 5 results
|